Regional Weather Roundup
Issued by NWS

Home | Current Version | Previous Version | Text Only | Print | Product List | Glossary On
Versions: 1 2 3 4 5 6 7 8 9 10 11 12 13 14 15 16 17 18 19 20 21 22 23 24 25 26 27 28 29 30 31 32 33 34 35 36 37 38 39 40 41 42 43 44 45 46 47 48 49 50
000
ASUS43 KMKX 231300
RWRWI

WISCONSIN REGIONAL WEATHER ROUNDUP
NATIONAL WEATHER SERVICE MILWAUKEE/SULLIVAN WI
800 AM CDT SAT AUG 23 2014

NOTE: "FAIR" INDICATES FEW OR NO CLOUDS BELOW 12,000 FEET WITH NO
SIGNIFICANT WEATHER AND/OR OBSTRUCTIONS TO VISIBILITY.

WIZ001-002-006>008-014>016-023>028-231400-
NORTHWEST WISCONSIN

CITY           SKY/WX    TMP DP  RH WIND       PRES   REMARKS
SUPERIOR ARPT  CLOUDY    62  61  96 NE8       30.06S
ASHLAND        CLOUDY    63  61  93 NE5       30.06S
HAYWARD        CLOUDY    65  64  97 NE6       30.04F
SIREN          FOG       64  63  97 NE5       30.04S VSB 1/2
RICE LAKE      CLOUDY    67  65  93 CALM      30.04F
LADYSMITH      CLOUDY    66  65  96 N3        30.04S
EAU CLAIRE     NOT AVBL
MENOMONIE      CLOUDY    67  66  97 CALM      30.00F
NEW RICHMOND   CLOUDY    67  66  97 NE7       30.01F FOG
OSCEOLA        CLOUDY    67  67 100 NE7       30.04S
$$

WIZ003>005-009-010-017-018-231400-
NORTH CENTRAL WISCONSIN

CITY           SKY/WX    TMP DP  RH WIND       PRES   REMARKS
WOODRUFF       CLOUDY    69  67  93 CALM      30.04S
RHINELANDER    CLOUDY    69  68  96 CALM      30.05S FOG
EAGLE RIVER    CLOUDY    67  67 100 CALM      30.04F
LAND O LAKES   CLOUDY    65  65 100 NE3       30.06F FOG
PHILLIPS       CLOUDY    65  65 100 NE3       30.04R FOG
TOMAHAWK       CLOUDY    68  67  96 CALM      30.04S FOG
MEDFORD        FOG       68  68 100 CALM      30.03R VSB 1/4
MERRILL        FOG       69  69 100 E5        30.03R VSB 1
$$

WIZ029-030-035-036-043>047-231400-
CENTRAL WISCONSIN

CITY           SKY/WX    TMP DP  RH WIND       PRES   REMARKS
WAUSAU         FOG       70  69  97 E5        30.01R VSB 1/2
MOSINEE        FOG       70  70 100 E3        30.02S VSB 1/4
MARSHFIELD     FOG       71  70  96 E6        30.00F VSB 1/2
STEVENS POINT  DRZL/FOG  68  68  99 E3        30.01S VSB 3/4
WAUPACA        FOG       72  70  94 CALM      30.01R VSB 1/2
WAUTOMA        NOT AVBL
WISC RAPIDS    FOG       71  70  96 E7        30.00F VSB 1/2
CAMP DOUGLAS   FOG       73  73 100 E5        29.98R VSB 3/4
$$

WIZ011>013-019>022-031-037>040-048>050-231400-
NORTHEAST WISCONSIN

CITY           SKY/WX    TMP DP  RH WIND       PRES   REMARKS
ANTIGO         FOG       67  67 100 CALM      30.04S VSB 3/4
STURGEON BAY   MOSUNNY   68  64  88 E8        30.04R
GREEN BAY      CLOUDY    70  68  93 E3        30.02R FOG
MANITOWOC      NOT AVBL
APPLETON       FOG       70  68  94 VRB3      30.03R VSB 1/4
CLINTONVILLE   FOG       68  68 100 E3        30.01S VSB 1/4
OSHKOSH        CLOUDY    73  71  93 S3        30.00R FOG
$$

WIZ032>034-041-042-053>061-231400-
SOUTHWEST WISCONSIN

CITY           SKY/WX    TMP DP  RH WIND       PRES   REMARKS
LA CROSSE      CLOUDY    74  70  87 CALM      29.97R
SPARTA         FOG       70  70  98 CALM      29.97S VSB<1/4
VIROQUA        PTSUNNY   71  71 100 E5        29.98S
BOSCOBEL       FOG       75  74  96 CALM      29.97R VSB 1/4
PRAIRIE DU CHI CLOUDY    75  73  92 CALM      29.95R FOG
PLATTEVILLE    FAIR      74  73  96 CALM      29.99R
$$

WIZ056-057-062-063-064-067-068-231400-
SOUTH CENTRAL WISCONSIN

CITY           SKY/WX    TMP DP  RH WIND       PRES   REMARKS
BARABOO/DELLS  FOG       74  72  95 E3        29.97F VSB<1/4
LONE ROCK      FOG       79  75  87 E7        29.97R VSB 1   HX  83
WATERTOWN      CLOUDY    71  71 100 SE5       30.00R FOG
MADISON        FOG       75  73  93 SE6       29.99R VSB 1
MIDDLETON      CLOUDY    76  76 100 SE5       29.99S
MONROE         FOG       72  72 100 SE5       29.99R VSB<1/4
JANESVILLE     CLOUDY    73  72  94 SE5       29.98R FOG
$$

WIZ051-052-058>065-066-070>072-231400-
SOUTHEAST WISCONSIN

CITY           SKY/WX    TMP DP  RH WIND       PRES   REMARKS
MILWAUKEE      FOG       70  69  97 NE6       30.01R VSB 1/4
WAUKESHA       FOG       70  68  94 E3        30.03R VSB 1/4
MILWAUKEE/TIMM FOG       70  66  88 NE5       30.03R VSB 1/2
RACINE         FOG       71  70  96 CALM      30.03R VSB<1/4
BURLINGTON     FOG       69  69 100 CALM      30.00R VSB 1/4
KENOSHA        FOG       71  71 100 CALM      30.01R VSB<1/4
FOND DU LAC    CLOUDY    71  69  93 S7        30.01R FOG
SHEBOYGAN      CLOUDY    70  68  93 S5        30.03R
WEST BEND      FOG       68  66  94 CALM      30.03R VSB<1/4
JUNEAU         CLOUDY    70  46  42 E6        30.02R HAZE
$$

LSZ147-162-231400-
LAKE SUPERIOR

STATION/POSITION TIME  TEMP    WIND        PRES    WAVE
                       AIR SEA DIR/SP/G            HT/PER
                 (UTC) (F)     (DEG/KT/KT) (MB)    (FT/S)
W MID LAKE BUOY  1150   59 58   60/ 10/ 12 1017.7R   1/ 3
DEVILS ISLAND    1200   61      70/ 10/ 11 1018.0R
PORT WING        1200   61      30/  9/ 10 1017.9
SAXON HARBOR     1240   63     350/  2/  3 1017.6R
$$

LMZ867-665-643>646-231400-
LAKE MICHIGAN

STATION/POSITION TIME  TEMP    WIND        PRES    WAVE
                       AIR SEA DIR/SP/G            HT/PER
                 (UTC) (F)     (DEG/KT/KT) (MB)    (FT/S)
N MID LAKE BUOY  1150   67 65  120/  8/  8 1016.6R   0
NORTHPORT PIER   1200   67     150/  4/  7 1016.9R
SISTER BAY       1041   68     140/  6/  8   N/A
ALGOMA LAKESHORE 1208          150/  3/  5   N/A
KEWAUNEE LAKESHO 1200   67     110/  5/  6 1015.4R
SHEBOYGAN LAKESH 1200   68 66   CALM  /  1 1016.0R
ATWATER BUOY     1200   69      30/  8/ 10 1016.5R
MILWAUKEE LAKESH 1200   69      40/  7/  8   N/A
S MID LAKE BUOY  1150   70 69   90/  6/  8 1015.1S   0
KENOSHA   LAKESH 1200   71      40/  4/  6 1014.9S
$$

TC  - TEMPERATURE IN CELSIUS
VSB - VISIBILITY IN STATUTE MILES
WCI - WIND CHILL INDEX
HX  - HEAT INDEX




USA.gov is the U.S. government's official web portal to all federal, state and local government web resources and services.